This is the latest recevied weather packets stored in our database for station/object HS8AFA. If no packets are shown the sender has not sent any weather packets the latest 10 day(s).
| Time | Temp. | Humidity | Pressure | Rain* | Wind** | Luminosity | Snow |
|---|---|---|---|---|---|---|---|
| 1777795840 | 32.22° C | 100% | 1007.3 hPa | 0 mm | - | - | - |
| 1777795220 | 32.22° C | 100% | 1007.6 hPa | 0 mm | - | - | - |
| 1777794621 | 32.22° C | 100% | 1007.7 hPa | 0 mm | - | - | - |
| 1777777219 | 32.78° C | 100% | 1012.1 hPa | 0 mm | - | - | - |
| 1777770018 | 29.44° C | 100% | 1011.6 hPa | 0 mm | - | - | - |
| 1777769419 | 28.89° C | 100% | 1011.3 hPa | 0 mm | - | - | - |
| 1777768821 | 28.33° C | 100% | 1011.1 hPa | 0 mm | - | - | - |
| 1777759837 | 27.78° C | 100% | 1009.7 hPa | 0 mm | - | - | - |
| 1777752617 | 28.33° C | 100% | 1009.1 hPa | 0 mm | - | - | - |
| 1777750818 | 28.33° C | 100% | 1009.2 hPa | 0 mm | - | - | - |
| 1777741217 | 29.44° C | 100% | 1010.9 hPa | 0 mm | - | - | - |
| 1777738237 | 29.44° C | 100% | 1011.2 hPa | 0 mm | - | - | - |
| 1777737618 | 30° C | 100% | 1011.3 hPa | 0 mm | - | - | - |
| 1777737018 | 30° C | 100% | 1011.2 hPa | 0 mm | - | - | - |
| 1777729239 | 31.67° C | 100% | 1009.3 hPa | 0 mm | - | - | - |
| 1777728640 | 31.67° C | 100% | 1009.1 hPa | 0 mm | - | - | - |
| 1777728020 | 31.11° C | 100% | 1008.9 hPa | 0 mm | - | - | - |
| 1777725618 | 31.67° C | 100% | 1008.5 hPa | 0 mm | - | - | - |
| 1777720820 | 33.33° C | 100% | 1007.6 hPa | 0 mm | - | - | - |
| 1777717219 | 33.89° C | 100% | 1007.1 hPa | 0 mm | - | - | - |
| 1777716017 | 33.89° C | 100% | 1007 hPa | 0 mm | - | - | - |
| 1777715417 | 34.44° C | 100% | 1007.2 hPa | 0 mm | - | - | - |
| 1777714818 | 34.44° C | 100% | 1007.3 hPa | 0 mm | - | - | - |
| 1777714219 | 33.89° C | 100% | 1007.1 hPa | 0 mm | - | - | - |
| 1777703419 | 36.67° C | 66% | 1009.1 hPa | 0 mm | - | - | - |
* Rain latest hour (hover to see other rain measurements)
** Current wind speed in m/s (hover to see current wind gust speed)